Flag for Myanmar Weather past 2 weeks in Yangon, Myanmar

Now
86 °F

Partly sunny.


Feels Like: 97 °F
Forecast: 76 / 85 °F
Wind: 7 mph from Northwest

Location: Rangoon Airport

Current Time: Aug 20, 2014 at 1:47:15 PM

Latest Report: Aug 20, 2014 at 1:00 PM


Visibility: 4 mi

Pressure: 29.80 "Hg

Humidity: 75%

Dew point: 77 °F

Location of YangonLocation

Historic Weather in Yangon — Graph

°F

Yangon temperature yesterday

Maximum temperature yesterday: 90 °F (at 12:00 PM)
Minimum temperature yesterday: 77 °F (at 4:00 AM)
Average temperature yesterday: 83 °F

Past Weeks' High & Low Weather Summary

 TemperatureHumidityPressure
High90 °F (Aug 17, 3:00 PM)100% (Aug 5, 1:00 PM)32.26 "Hg (Aug 5, 1:00 PM)
Low75 °F (Aug 6, 3:30 PM)67% (Aug 17, 3:00 PM)29.62 "Hg (Aug 7, 4:00 PM)
Average80 °F91%29.78 "Hg
* Reported Aug 5 12:30 PM — Aug 20 12:30 PM, Yangon, Weather by CustomWeather, © 2014

Note: Actual official high and low records may vary slightly from our data, if they occured in-between our weather recording intervals... More about our weather records

Advertising

Yangon weather history for previous 24 hours

 ConditionsComfort  
Time TempWeatherWind HumidityBarometerVisibility
12:30 PM
Aug 20
86 °FPartly sunny.8 mph75%29.83 "Hg4 mi
11:30 AM84 °FMostly cloudy.5 mph84%29.83 "Hg4 mi
11:00 AM84 °FDrizzle. Mostly cloudy.6 mph84%29.83 "Hg4 mi
10:00 AM82 °FDrizzle. Mostly cloudy.6 mph84%29.83 "Hg4 mi
9:00 AM81 °FDrizzle. Mostly cloudy.5 mph84%29.83 "Hg4 mi
8:00 AM81 °FMostly cloudy.2 mph84%29.83 "Hg4 mi
7:30 AM79 °FMostly cloudy.3 mph94%29.83 "Hg4 mi
7:00 AM79 °FMostly cloudy.2 mph94%29.80 "Hg4 mi
6:30 AM79 °FMostly cloudy.3 mph94%29.80 "Hg4 mi
6:00 AM79 °FMostly cloudy.3 mph94%29.77 "Hg4 mi
5:30 AM79 °FPassing clouds.2 mph94%29.77 "Hg4 mi
5:00 AM79 °FMostly cloudy.2 mph94%29.77 "Hg4 mi
4:30 AM79 °FMostly cloudy.3 mph94%29.77 "Hg4 mi
12:00 AM81 °FPassing clouds.3 mph94%29.83 "Hg4 mi
11:30 PM
Aug 19
81 °FPassing clouds.6 mph94%29.83 "Hg4 mi
11:00 PM81 °FPassing clouds.6 mph94%29.83 "Hg4 mi
10:30 PM81 °FPassing clouds.6 mph94%29.86 "Hg4 mi
10:00 PM81 °FPassing clouds.6 mph94%29.86 "Hg4 mi
9:30 PM81 °FPassing clouds.5 mph94%29.83 "Hg4 mi
9:00 PM81 °FPassing clouds.6 mph94%29.83 "Hg4 mi
8:30 PM81 °FPassing clouds.5 mph84%29.80 "Hg4 mi
8:00 PM81 °FPassing clouds.5 mph84%29.80 "Hg4 mi
7:30 PM82 °FPassing clouds.6 mph84%29.80 "Hg4 mi
7:00 PM84 °FPassing clouds.7 mph84%29.77 "Hg4 mi
6:00 PM84 °FPartly sunny.6 mph74%29.74 "Hg4 mi
5:30 PM88 °FPartly sunny.5 mph79%29.74 "Hg5 mi
5:00 PM88 °FPartly sunny.5 mph79%29.74 "Hg5 mi
4:30 PM88 °FPartly sunny.9 mph79%29.74 "Hg5 mi
4:00 PM88 °FPartly sunny.12 mph79%29.74 "Hg5 mi
3:30 PM90 °FPartly sunny.3 mph71%29.77 "Hg5 mi
3:00 PM88 °FPartly sunny.6 mph79%29.77 "Hg5 mi
2:30 PM88 °FPartly sunny.8 mph79%29.80 "Hg5 mi
2:00 PM88 °FPartly sunny.8 mph75%29.80 "Hg5 mi
1:30 PM90 °FPartly sunny.9 mph75%29.83 "Hg5 mi
1:00 PMN/APartly sunny.8 mphN/A32.26 "Hg5 mi
Weather by CustomWeather, © 2014

See weather overviewHow to use our weather pages